TimeEST,TemperatureF,Dew PointF,Humidity,Sea Level PressureIn,VisibilityMPH,Wind Direction,Wind SpeedMPH,Gust SpeedMPH,PrecipitationIn,Events,Conditions,WindDirDegrees,DateUTC
12:56 AM,34.0,26.1,73,29.98,10.0,WSW,12.7,-,N/A,,Mostly Cloudy,240,2013-02-15 05:56:00
1:56 AM,32.9,26.1,76,29.98,10.0,SW,5.8,-,N/A,,Mostly Cloudy,230,2013-02-15 06:56:00
2:56 AM,32.9,25.2,73,29.99,10.0,Variable,6.9,-,N/A,,Mostly Cloudy,0,2013-02-15 07:56:00
3:56 AM,32.0,25.2,76,30.00,10.0,WSW,9.2,-,N/A,,Scattered Clouds,240,2013-02-15 08:56:00
4:56 AM,31.1,24.1,75,30.02,10.0,West,9.2,-,N/A,,Mostly Cloudy,260,2013-02-15 09:56:00
5:56 AM,32.0,22.1,67,30.04,10.0,West,6.9,-,N/A,,Overcast,260,2013-02-15 10:56:00
6:56 AM,32.0,22.1,67,30.06,10.0,SW,5.8,-,N/A,,Overcast,230,2013-02-15 11:56:00
7:40 AM,32.0,24.8,75,29.99,10.0,Calm,Calm,-,N/A,,Overcast,0,2013-02-15 12:40:00
7:56 AM,32.0,25.2,76,30.07,10.0,Calm,Calm,-,N/A,,Overcast,0,2013-02-15 12:56:00
8:27 AM,32.0,24.8,75,30.01,10.0,Calm,Calm,-,N/A,,Overcast,0,2013-02-15 13:27:00
8:56 AM,32.9,24.1,70,30.09,10.0,Variable,3.5,-,N/A,,Overcast,0,2013-02-15 13:56:00
9:56 AM,34.0,22.1,62,30.09,10.0,West,9.2,-,N/A,,Scattered Clouds,270,2013-02-15 14:56:00
10:56 AM,34.9,24.1,65,30.10,10.0,West,8.1,-,N/A,,Mostly Cloudy,260,2013-02-15 15:56:00
11:56 AM,36.0,24.1,62,30.10,10.0,WSW,8.1,-,N/A,,Mostly Cloudy,250,2013-02-15 16:56:00
12:56 PM,36.9,23.0,57,30.07,10.0,West,10.4,-,N/A,,Scattered Clouds,260,2013-02-15 17:56:00
1:56 PM,36.0,21.0,55,30.06,10.0,WSW,5.8,-,N/A,,Overcast,240,2013-02-15 18:56:00
2:56 PM,36.9,23.0,57,30.06,10.0,West,9.2,-,0.00,,Mostly Cloudy,260,2013-02-15 19:56:00
3:56 PM,34.0,25.2,70,30.07,10.0,NW,9.2,-,N/A,,Mostly Cloudy,320,2013-02-15 20:56:00
4:56 PM,32.9,26.1,76,30.09,10.0,NW,9.2,-,0.00,Snow,Light Snow,320,2013-02-15 21:56:00
5:12 PM,32.0,26.6,80,30.01,2.5,NW,6.9,-,0.00,Snow,Light Snow,310,2013-02-15 22:12:00
5:26 PM,30.2,26.6,86,30.01,4.0,North,4.6,-,0.00,Snow,Light Snow,350,2013-02-15 22:26:00
5:43 PM,30.2,26.6,86,30.02,2.5,West,8.1,-,0.00,Snow,Light Snow,270,2013-02-15 22:43:00
5:45 PM,30.2,26.6,86,30.02,1.8,West,9.2,-,0.00,Snow,Light Snow,270,2013-02-15 22:45:00
5:56 PM,30.0,27.1,89,30.10,2.5,Variable,5.8,-,0.00,Snow,Light Snow,0,2013-02-15 22:56:00
6:04 PM,28.4,26.6,93,30.03,3.0,WNW,4.6,-,0.00,Snow,Light Snow,290,2013-02-15 23:04:00
6:35 PM,30.2,26.6,86,30.03,7.0,Calm,Calm,-,0.00,Snow,Light Snow,0,2013-02-15 23:35:00
6:42 PM,30.2,26.6,86,30.03,5.0,North,5.8,-,0.00,Snow,Light Snow,350,2013-02-15 23:42:00
6:56 PM,29.1,26.1,88,30.12,5.0,North,9.2,-,0.00,Snow,Light Snow,350,2013-02-15 23:56:00
7:56 PM,27.1,23.0,84,30.14,10.0,North,9.2,-,0.00,Snow,Light Snow,350,2013-02-16 00:56:00
8:56 PM,26.1,19.0,75,30.14,10.0,NW,6.9,-,0.00,,Scattered Clouds,320,2013-02-16 01:56:00
9:56 PM,24.1,19.0,81,30.15,10.0,Calm,Calm,-,N/A,,Mostly Cloudy,0,2013-02-16 02:56:00
10:56 PM,24.1,18.1,78,30.14,10.0,Calm,Calm,-,N/A,,Overcast,0,2013-02-16 03:56:00
11:56 PM,22.1,18.1,85,30.14,10.0,Calm,Calm,-,N/A,,Scattered Clouds,0,2013-02-16 04:56:00